Vorticity
12 13 16 12 10 8 3 1 1 2 4 6 9 11 9 9 9 8 7 7 6 6 4 3 2 3 3 3 4 4 4 7 6 6 7 8 9 6 5 4 4 5 6
8 8 9 11 8 4 1 1 1 4 6 10 13 10 9 8 7 7 5 3 3 3 4 4 5 6 6 6 6 5 5 4 5 5 4 4 4 6 7 8 7 7 5
10 12 9 8 4 2 2 1 5 6 10 12 10 9 9 6 4 4 4 5 5 5 5 5 4 3 4 2 3 2 2 3 1 3 5 8 5 3 0 7 12 12 10
8 6 4 2 0 2 4 5 7 9 13 9 8 6 5 4 4 5 5 4 4 4 3 2 2 2 3 3 5 8 10 13 13 13 14 14 15 16 16 12 5 14 18
5 3 2 3 2 5 8 13 15 12 8 4 4 4 5 5 5 4 3 2 2 2 3 4 7 10 12 12 10 7 3 2 3 3 2 2 2 3 5 5 4 2 10
4 4 4 4 7 15 14 10 8 4 4 5 5 5 5 4 4 3 2 4 7 12 13 10 5 4 4 6 7 7 7 8 8 9 9 9 8 7 6 8 6 9 2
5 4 5 8 13 9 7 4 4 4 5 5 4 4 4 3 4 8 12 10 5 3 3 5 7 8 7 5 3 1 2 1 1 2 4 5 5 6 9 7 7 7 6
5 4 8 11 10 6 5 5 5 4 4 5 5 4 8 15 9 4 3 0 2 6 5 3 2 2 2 2 1 2 3 3 5 4 4 5 7 6 7 8 10 10 8
7 8 11 7 7 5 5 4 5 4 4 5 11 13 1 2 3 2 2 3 4 5 5 4 4 3 3 3 4 4 4 6 8 8 11 13 10 10 11 10 9 10 9
12 10 7 6 6 7 6 5 6 9 12 8 2 3 4 3 3 3 4 6 6 5 4 4 5 5 4 2 3 3 3 5 5 10 9 9 9 11 14 11 9 12 17
4 5 6 9 8 4 4 11 9 4 1 1 3 2 1 3 5 8 6 4 2 3 5 6 4 3 3 3 3 4 6 8 11 15 14 16 17 18 20 21 20 13 12
7 9 8 3 3 10 11 4 2 1 2 2 1 1 3 6 4 6 5 6 7 6 5 4 4 2 6 8 10 13 17 17 19 28 32 33 27 27 20 19 24 23 19
6 2 6 10 10 7 4 3 3 3 2 3 5 7 6 6 5 3 4 6 6 5 4 3 5 9 14 16 20 15 24 30 29 24 20 18 15 16 15 15 15 13 13
7 8 6 6 4 5 5 3 2 3 5 7 6 3 4 6 8 9 8 6 4 1 5 7 10 17 18 19 27 31 29 19 19 16 15 13 11 9 9 9 9 10 13
8 8 3 5 1 0 1 4 3 5 5 5 8 9 8 9 10 9 4 1 4 5 13 15 19 19 25 28 19 14 11 13 8 5 4 3 3 4 5 6 7 7 7
3 5 1 1 3 4 4 3 5 7 8 9 10 11 11 6 4 1 5 4 10 17 19 24 23 22 20 15 10 8 6 6 3 1 1 4 4 6 8 8 8 8 11
1 2 2 1 4 4 6 6 7 8 10 11 9 5 2 1 4 4 8 11 20 25 23 20 17 16 11 6 4 2 3 4 5 4 4 4 4 7 13 17 19 20 22
2 2 3 4 4 6 6 7 8 9 6 6 7 4 3 5 6 10 16 23 24 20 17 14 16 12 8 7 4 4 1 1 5 7 10 12 15 16 18 20 20 22 23
4 5 5 7 9 7 7 7 6 7 10 9 4 5 7 7 13 21 27 22 16 15 14 12 12 9 5 4 3 2 3 8 14 16 17 18 18 17 21 23 23 23 25
6 5 5 4 6 6 5 5 9 11 8 3 5 4 6 19 27 23 17 16 13 10 10 8 5 3 3 6 11 18 23 22 23 25 29 29 29 27 23 22 23 24 25
4 5 6 6 5 7 8 10 9 5 4 5 7 15 27 26 19 16 13 10 8 5 3 4 7 11 17 24 30 31 34 38 38 40 38 34 30 27 22 22 22 22 23
7 6 4 4 5 7 9 7 5 5 6 10 18 25 22 16 15 11 6 3 3 5 9 12 16 22 37 32 31 35 36 36 33 33 30 22 16 15 19 20 21 20 23
6 7 6 7 8 8 6 5 6 6 10 22 22 19 18 13 6 2 3 7 10 12 15 24 37 38 17 21 14 14 21 18 16 14 15 17 15 16 18 21 20 23 25
11 7 7 5 5 7 6 7 7 13 20 20 18 17 11 5 2 3 7 12 14 23 30 27 17 19 25 15 11 19 24 24 23 22 19 16 18 15 19 22 24 25 21
7 6 4 6 7 7 7 8 12 18 19 21 16 12 5 2 1 2 12 16 28 23 21 11 15 24 14 6 12 19 14 17 19 17 15 15 16 18 20 27 29 16 8
4 5 7 7 8 7 10 13 17 19 19 16 13 7 3 2 3 6 14 26 20 13 11 8 26 14 7 11 17 11 23 19 17 17 14 18 17 20 31 29 10 6 2
Height
5806 5805 5806 5806 5806 5805 5805 5806 5805 5804 5802 5800 5797 5795 5792 5789 5786 5784 5781 5779 5776 5772 5770 5767 5764 5760 5756 5751 5747 5742 5737 5734 5729 5724 5722 5718 5716 5711 5707 5700 5697 5693 5690
5801 5800 5800 5801 5800 5801 5801 5801 5801 5798 5796 5793 5791 5789 5786 5783 5781 5778 5775 5772 5768 5764 5761 5757 5753 5749 5744 5740 5735 5730 5726 5722 5716 5711 5705 5703 5703 5700 5693 5688 5683 5679 5674
5797 5796 5796 5796 5797 5796 5795 5794 5792 5791 5789 5786 5784 5782 5780 5777 5774 5770 5766 5763 5759 5755 5750 5746 5742 5738 5733 5729 5723 5718 5713 5707 5703 5697 5690 5684 5681 5678 5680 5676 5671 5666 5660
5791 5791 5792 5792 5791 5789 5787 5785 5784 5782 5780 5779 5778 5775 5772 5769 5765 5761 5757 5753 5748 5743 5738 5734 5730 5725 5720 5716 5711 5705 5700 5694 5689 5681 5676 5670 5665 5658 5656 5656 5653 5649 5644
5786 5785 5786 5785 5783 5782 5780 5778 5776 5775 5773 5771 5769 5766 5763 5759 5755 5752 5747 5742 5738 5733 5729 5724 5719 5714 5709 5704 5698 5693 5686 5679 5674 5667 5661 5654 5649 5644 5636 5634 5634 5631 5629
5780 5779 5779 5778 5777 5775 5773 5771 5769 5768 5766 5763 5760 5757 5753 5750 5746 5742 5738 5733 5729 5724 5718 5713 5707 5701 5695 5690 5684 5678 5671 5665 5658 5651 5644 5637 5631 5625 5617 5612 5611 5608 5610
5774 5773 5772 5772 5771 5770 5767 5764 5762 5760 5757 5754 5751 5748 5744 5740 5736 5732 5728 5723 5717 5711 5705 5698 5692 5686 5679 5673 5666 5660 5653 5646 5640 5633 5626 5619 5612 5604 5597 5590 5589 5583 5587
5768 5767 5768 5768 5767 5764 5760 5757 5754 5751 5749 5746 5743 5739 5735 5731 5726 5721 5716 5711 5705 5699 5693 5686 5679 5671 5664 5657 5649 5643 5635 5627 5619 5612 5605 5598 5592 5584 5577 5569 5561 5559 5560
5762 5761 5762 5762 5760 5757 5753 5749 5746 5743 5740 5737 5734 5729 5725 5720 5714 5709 5703 5697 5691 5684 5677 5669 5662 5653 5645 5637 5629 5621 5612 5604 5596 5588 5581 5572 5565 5558 5552 5546 5539 5530 5526
5757 5756 5756 5755 5752 5748 5745 5741 5738 5735 5731 5727 5723 5718 5713 5708 5702 5696 5690 5683 5676 5668 5660 5652 5643 5634 5625 5615 5606 5597 5589 5581 5573 5564 5557 5548 5540 5534 5527 5520 5513 5507 5498
5751 5749 5749 5746 5743 5739 5737 5733 5730 5726 5722 5718 5713 5708 5702 5696 5690 5683 5675 5668 5659 5651 5641 5632 5622 5613 5604 5594 5585 5575 5566 5558 5549 5539 5529 5522 5514 5510 5503 5496 5491 5485 5477
5745 5743 5740 5736 5733 5731 5728 5725 5722 5718 5713 5707 5701 5695 5690 5683 5675 5667 5658 5649 5640 5630 5621 5612 5602 5592 5581 5570 5559 5550 5540 5530 5522 5513 5504 5497 5490 5484 5478 5472 5469 5462 5459
5738 5735 5731 5728 5725 5722 5719 5715 5711 5706 5701 5694 5688 5681 5673 5665 5657 5648 5639 5630 5622 5612 5602 5591 5580 5568 5556 5544 5531 5520 5513 5503 5495 5488 5481 5475 5467 5462 5456 5450 5446 5441 5437
5729 5726 5723 5720 5717 5713 5709 5704 5699 5693 5686 5680 5673 5665 5656 5647 5639 5630 5622 5613 5603 5592 5580 5566 5554 5541 5528 5515 5505 5496 5488 5482 5475 5468 5461 5455 5448 5441 5436 5430 5426 5421 5415
5721 5718 5715 5712 5708 5703 5698 5692 5686 5679 5672 5664 5657 5649 5641 5632 5624 5614 5604 5592 5580 5567 5554 5542 5529 5515 5504 5493 5485 5478 5471 5466 5459 5452 5445 5439 5430 5421 5414 5408 5406 5396 5389
5712 5709 5705 5701 5697 5692 5685 5679 5672 5665 5657 5649 5640 5632 5624 5615 5604 5594 5582 5570 5557 5542 5530 5517 5506 5497 5487 5476 5467 5458 5453 5446 5438 5432 5426 5418 5408 5399 5392 5384 5376 5370 5359
5704 5700 5696 5691 5685 5679 5672 5664 5656 5648 5640 5632 5624 5615 5605 5594 5582 5570 5557 5544 5532 5519 5507 5496 5486 5478 5468 5458 5450 5440 5432 5425 5416 5406 5399 5393 5383 5372 5363 5359 5351 5345 5335
5694 5690 5685 5679 5672 5663 5656 5649 5641 5633 5625 5614 5604 5594 5585 5574 5560 5547 5532 5520 5509 5498 5487 5479 5468 5459 5450 5439 5429 5418 5409 5400 5389 5378 5369 5362 5353 5341 5331 5328 5324 5317 5311
5683 5678 5671 5664 5657 5650 5643 5635 5627 5617 5606 5596 5585 5574 5562 5550 5536 5524 5512 5500 5490 5481 5470 5460 5450 5439 5431 5417 5404 5390 5380 5369 5358 5347 5340 5332 5324 5314 5305 5300 5296 5291 5289
5672 5665 5659 5652 5644 5637 5629 5619 5609 5599 5588 5576 5564 5553 5541 5528 5516 5504 5493 5483 5471 5462 5451 5443 5429 5416 5404 5391 5375 5360 5345 5334 5324 5318 5312 5305 5297 5290 5283 5276 5271 5268 5267
5658 5652 5645 5638 5630 5621 5612 5603 5593 5583 5571 5560 5548 5534 5520 5509 5497 5487 5475 5465 5455 5443 5431 5421 5408 5392 5375 5362 5346 5331 5316 5303 5294 5290 5287 5282 5276 5270 5265 5259 5254 5250 5249
5645 5638 5631 5623 5614 5605 5596 5587 5577 5565 5553 5541 5527 5515 5503 5492 5481 5470 5458 5445 5434 5421 5408 5395 5385 5371 5355 5339 5326 5311 5298 5286 5275 5272 5268 5263 5259 5255 5252 5248 5243 5240 5239
5629 5621 5613 5605 5596 5587 5578 5568 5558 5546 5534 5521 5508 5498 5488 5477 5464 5452 5441 5429 5414 5398 5385 5372 5362 5352 5339 5327 5314 5300 5290 5279 5269 5262 5257 5252 5247 5244 5242 5238 5234 5233 5233
5611 5603 5595 5587 5578 5569 5560 5552 5541 5528 5515 5504 5493 5482 5473 5463 5451 5439 5424 5409 5394 5379 5365 5353 5343 5334 5323 5312 5301 5292 5283 5273 5264 5258 5252 5245 5240 5236 5233 5231 5228 5227 5228
5594 5587 5580 5571 5563 5553 5543 5532 5520 5509 5498 5488 5478 5468 5458 5447 5438 5426 5408 5392 5377 5359 5346 5335 5326 5319 5312 5302 5290 5282 5274 5265 5257 5251 5245 5240 5235 5231 5227 5225 5224 5225 5227
5578 5571 5564 5556 5547 5536 5523 5513 5502 5491 5482 5473 5464 5454 5443 5433 5422 5410 5398 5379 5362 5350 5335 5323 5313 5307 5298 5291 5282 5274 5268 5258 5250 5246 5240 5235 5230 5226 5223 5222 5224 5225 5226